Location: Dal�� Lhota
(48.7500°N, 14.0167°E)
Time: 22:31:04
(UTC+00:00)

MOS 1 Rocket - Pass Details

Date: 24 September 2020
Orbit: 614 x 831 km, 97.4° (Epoch: 25 October)

Event Time Altitude Azimuth Distance (km) Brightness Sun altitude
Rises 18:55:49 0° 7° (N) 2,975 6.8 -20.0°
Reaches altitude 10° 18:58:09 10° 0° (N) 2,036 6.0 -20.3°
Maximum altitude 19:02:16 41° 291° (WNW) 913 4.4 -20.9°
Drops below altitude 10° 19:06:16 10° 221° (SW) 1,973 5.8 -21.5°
Sets 19:08:31 0° 214° (SW) 2,871 6.6 -21.9°
